Flag for Slovakia Weather past 2 weeks in Prešov, Slovakia

Now
50 °F

Clear.


Feels Like: 49 °F
Forecast: 46 / 75 °F
Wind: 3 mph from Northeast

Location: Kosice - Barca

Current Time: Apr 27, 2015 at 12:56:18 AM

Latest Report: Apr 27, 2015 at 12:30 AM


Visibility: 10 mi

Pressure: 29.83 "Hg

Humidity: 76%

Dew point: 43 °F

Location of PrešovLocation

Historic Weather in Prešov — Graph

°F

Prešov temperature yesterday

Maximum temperature yesterday: 70 °F (at 12:30 PM)
Minimum temperature yesterday: 45 °F (at 4:00 AM)
Average temperature yesterday: 58 °F

Past Weeks' High & Low Weather Summary

 TemperatureHumidityPressure
High79 °F (Apr 16, 4:00 PM)94% (Apr 17, 7:00 PM)30.33 "Hg (Apr 17, 7:00 PM)
Low32 °F (Apr 19, 2:00 AM)18% (Apr 16, 4:00 PM)29.74 "Hg (Apr 16, 4:30 PM)
Average53 °F52%30.03 "Hg
* Reported Apr 11 11:00 PM — Apr 26 11:30 PM, Prešov, Weather by CustomWeather, © 2015

Note: Actual official high and low records may vary slightly from our data, if they occured in-between our weather recording intervals... More about our weather records

Advertising

Prešov weather history for previous 24 hours

 ConditionsComfort  
Time TempWeatherWind HumidityBarometerVisibility
11:30 PM
Sun, Apr 26
50 °FClear.3 mph82%29.80 "Hg10 mi
11:00 PM54 °FClear.2 mph72%29.83 "Hg10 mi
10:30 PM54 °FClear.3 mph72%29.83 "Hg10 mi
10:00 PM55 °FClear.5 mph67%29.83 "Hg10 mi
9:30 PM57 °FClear.2 mph63%29.80 "Hg10 mi
9:00 PM59 °FClear.2 mph59%29.80 "Hg10 mi
8:30 PM63 °FSunny.3 mph52%29.80 "Hg10 mi
8:00 PM61 °FSunny.6 mph59%29.80 "Hg10 mi
7:30 PM64 °FSunny.9 mph49%29.80 "Hg10 mi
7:00 PM66 °FSunny.10 mph43%29.80 "Hg10 mi
6:30 PM68 °FSunny.8 mph40%29.80 "Hg10 mi
6:00 PM68 °FPassing clouds.9 mph43%29.80 "HgN/A
5:30 PM70 °FSunny.10 mph38%29.80 "Hg10 mi
5:00 PM68 °FSunny.13 mph43%29.80 "Hg10 mi
4:30 PM68 °FSunny.13 mph43%29.83 "Hg10 mi
4:00 PM68 °FPassing clouds.12 mph43%29.83 "HgN/A
3:30 PM68 °FSunny.13 mph43%29.83 "Hg10 mi
3:00 PM68 °FPassing clouds.15 mph43%29.83 "HgN/A
2:30 PM70 °FPassing clouds.15 mph40%29.83 "HgN/A
2:00 PM70 °FSunny.15 mph40%29.83 "Hg10 mi
1:30 PM68 °FSunny.15 mph46%29.86 "Hg10 mi
1:00 PM68 °FSunny.16 mph46%29.86 "Hg10 mi
12:30 PM70 °FPassing clouds.14 mph43%29.86 "HgN/A
12:00 PM68 °FSunny.9 mph43%29.86 "Hg10 mi
11:30 AM68 °FPassing clouds.8 mph46%29.86 "HgN/A
11:00 AM66 °FPassing clouds.9 mph49%29.89 "HgN/A
10:30 AM64 °FSunny.7 mph52%29.89 "Hg10 mi
10:00 AM63 °FSunny.7 mph56%29.89 "Hg10 mi
9:30 AM61 °FPassing clouds.5 mph63%29.89 "HgN/A
9:00 AM59 °FSunny.2 mph63%29.89 "Hg10 mi
8:30 AM57 °FSunny.1 mph67%29.89 "Hg10 mi
8:00 AM55 °FSunny.1 mph72%29.89 "Hg10 mi
7:30 AM54 °FPassing clouds.3 mph77%29.89 "HgN/A
7:00 AM50 °FSunny.2 mph88%29.89 "Hg10 mi
6:30 AM48 °FSunny.3 mph82%29.89 "Hg10 mi
6:00 AM46 °FClear.3 mph87%29.89 "Hg10 mi
5:30 AM45 °FClear.2 mph87%29.89 "Hg10 mi
5:00 AM45 °FClear.3 mph93%29.89 "Hg10 mi
4:30 AM45 °FClear.3 mph87%29.89 "Hg10 mi
4:00 AM45 °FClear.3 mph87%29.89 "Hg10 mi
3:30 AM48 °FClear.2 mph82%29.89 "Hg10 mi
3:00 AM48 °FClear.2 mph82%29.89 "Hg10 mi
2:30 AM48 °FClear.3 mph82%29.89 "Hg10 mi
2:00 AM48 °FClear.2 mph82%29.89 "Hg10 mi
1:30 AM50 °FClear.3 mph76%29.89 "Hg10 mi
1:00 AM50 °FClear.3 mph76%29.92 "Hg10 mi
12:30 AM50 °FClear.1 mph76%29.92 "Hg10 mi
12:00 AM50 °FClear.2 mph76%29.92 "Hg10 mi
Weather by CustomWeather, © 2015

See weather overviewHow to use our weather pages